Wetbulb
57.16 56.77 57.55 57.89 58.18 57.79 57.18 56.57 53.79 50.49 50.37 52.27 53.20 55.19 55.11 56.59 53.93 52.93 52.54 47.47 46.23 45.94 46.41 47.77 48.90 49.13 49.01 49.06 48.84 48.53 48.56 48.43 48.37 48.33 48.22 48.24 48.33 48.27
57.45 57.06 57.32 57.74 58.22 58.50 58.33 57.15 55.82 54.33 51.60 53.94 53.67 55.07 55.42 55.56 53.74 49.70 49.52 47.69 45.54 44.93 45.01 45.13 45.96 46.61 47.03 46.94 46.75 46.27 46.03 45.74 45.74 45.69 45.64 45.74 45.78 45.52
57.30 57.13 57.42 58.24 57.98 58.22 58.24 58.12 56.53 55.86 53.53 54.90 53.78 53.76 51.39 52.08 48.13 49.18 49.51 47.90 45.00 43.98 43.67 43.56 43.50 43.72 43.73 43.41 43.14 43.17 43.01 42.92 42.64 42.21 41.81 41.86 42.27 42.70
56.49 56.63 56.95 57.66 57.38 58.07 58.22 57.35 57.09 56.85 55.15 53.14 53.68 51.37 51.24 51.59 47.65 46.81 49.56 49.98 48.35 45.34 44.14 43.87 42.95 41.86 41.19 40.74 40.58 40.14 40.13 39.83 39.86 39.32 39.34 39.84 40.08 40.15
56.62 56.54 56.52 56.88 56.56 57.77 57.82 56.63 56.53 55.80 55.02 53.66 53.20 48.61 48.61 46.52 45.79 45.62 45.38 46.06 48.29 47.92 44.47 42.60 42.11 41.44 40.90 39.89 39.01 39.10 39.60 39.36 39.11 38.99 38.68 38.38 38.34 38.17
57.34 57.37 57.08 56.88 56.60 57.12 56.78 56.03 55.08 53.86 53.60 52.67 52.24 43.42 45.51 43.80 45.87 44.34 42.67 43.36 43.57 45.70 44.01 42.14 41.33 40.88 40.21 39.26 38.73 39.11 39.22 39.35 39.30 39.25 38.72 37.85 37.29 37.54
57.66 57.69 57.52 55.96 51.68 54.47 55.91 54.65 53.79 52.56 52.15 50.69 49.74 40.32 41.01 38.66 42.00 42.71 41.24 39.77 41.17 42.35 39.29 38.33 37.62 35.56 36.32 39.35 38.82 39.52 39.31 39.33 39.58 39.50 39.24 38.32 37.57 37.54
56.30 56.94 57.08 49.35 49.60 46.19 45.70 46.44 51.78 52.90 50.69 49.43 48.17 43.92 43.73 40.12 37.60 36.82 35.35 33.92 31.76 40.11 37.13 35.98 36.51 34.74 36.69 37.09 39.03 38.81 38.91 39.30 39.47 39.39 38.80 38.19 37.73 37.08
56.33 56.22 55.54 54.56 48.46 52.64 44.34 39.84 35.76 35.29 39.48 46.89 43.83 36.59 34.78 36.52 36.59 33.60 32.28 32.11 31.84 35.04 34.87 31.77 34.44 32.99 35.62 37.86 38.41 38.76 38.00 37.92 37.77 37.61 37.30 37.08 37.02 36.20
55.98 55.77 53.37 52.76 49.33 45.60 37.11 33.05 32.72 33.03 34.01 34.87 33.99 33.60 34.16 35.19 34.86 33.71 32.26 32.23 32.14 33.49 34.20 28.24 31.77 30.63 34.04 34.54 37.53 38.08 38.05 37.44 37.56 37.57 37.40 36.86 36.47 36.01
40.05 39.71 42.23 40.81 38.90 38.50 34.31 32.84 30.87 30.05 32.87 33.59 33.29 33.26 33.24 33.30 33.23 32.46 30.50 29.41 29.18 28.98 32.81 30.68 30.37 29.16 29.79 29.70 32.71 36.24 35.74 35.19 35.82 36.61 36.91 37.05 36.57 35.98
33.60 34.18 34.88 35.21 35.10 35.38 34.01 31.78 29.03 27.46 27.73 27.51 27.24 28.95 29.47 29.12 29.04 29.91 29.55 28.48 28.50 26.66 29.06 27.58 27.39 26.72 24.68 28.11 28.77 28.90 28.31 33.20 33.62 33.95 34.66 35.62 36.45 33.71
31.51 31.41 32.41 33.71 33.84 33.30 32.03 29.75 27.99 28.99 28.92 28.28 28.21 28.59 29.75 30.11 29.94 27.98 28.78 28.10 27.19 26.25 29.18 26.25 24.35 23.81 23.48 23.95 25.55 26.75 27.18 27.98 28.70 30.87 34.28 34.75 36.00 36.04
30.04 30.56 31.62 32.27 31.66 30.67 29.52 29.75 29.40 29.01 28.52 27.66 27.30 27.23 26.97 26.87 28.12 28.08 28.24 27.87 28.30 26.97 28.11 27.42 23.02 23.42 22.06 21.19 20.70 24.41 25.86 27.10 28.31 28.29 29.14 32.04 34.64 36.31
29.80 30.13 30.25 29.84 29.38 28.75 29.59 29.90 29.28 28.88 28.24 27.29 26.58 27.08 27.20 26.13 26.73 27.29 27.86 27.79 27.08 27.29 28.19 27.39 24.23 23.88 22.36 20.39 20.11 22.12 23.05 24.97 26.91 27.08 26.79 27.70 29.61 33.69
27.35 26.32 26.16 26.26 26.68 27.49 26.62 26.72 26.40 26.30 26.46 25.21 25.05 25.86 26.63 25.96 25.49 26.30 25.02 24.55 23.03 22.90 26.02 26.14 25.24 23.44 21.54 22.01 22.12 21.39 23.07 21.54 24.48 25.12 26.17 27.29 28.60 33.17
27.60 27.47 26.68 26.52 26.04 26.12 26.30 25.66 25.74 26.06 24.09 24.00 23.30 22.85 22.78 23.01 22.80 23.47 22.82 21.31 17.81 18.56 19.90 23.78 24.86 24.27 23.75 22.87 20.05 21.04 21.35 21.65 23.41 24.95 25.77 25.23 27.01 30.96
29.32 28.06 27.56 27.01 26.16 25.76 24.69 23.93 23.86 21.62 21.81 22.18 21.54 21.22 20.28 19.70 19.41 19.77 20.62 19.73 18.67 18.87 18.90 20.26 20.97 20.63 20.86 22.09 25.23 20.92 21.69 23.12 23.36 22.40 22.65 21.90 23.03 26.60
25.29 24.11 23.61 23.25 22.86 22.93 22.24 22.08 20.36 20.76 21.89 19.72 18.45 17.91 18.19 17.93 17.46 17.26 17.65 17.79 17.25 17.44 17.63 18.56 17.76 15.69 11.69 10.15 19.79 24.62 18.09 18.41 18.81 18.80 21.20 22.15 22.70 26.20
23.26 22.16 21.34 21.31 21.25 20.38 19.94 19.10 18.86 18.97 17.36 16.52 15.15 14.10 14.31 14.99 13.70 13.72 14.31 12.49 13.36 14.22 14.26 15.76 15.78 16.70 14.65 11.50 12.36 16.30 23.58 18.88 18.15 17.88 19.62 23.72 25.42 29.07
20.13 19.18 19.25 19.07 19.11 18.97 18.45 17.95 16.42 15.44 15.36 13.45 13.89 12.83 8.40 11.80 9.91 11.08 10.68 9.80 10.22 12.86 12.09 12.94 15.52 17.85 17.18 16.73 11.18 12.73 17.27 23.66 23.34 21.34 22.05 20.53 19.58 22.21
18.70 17.87 17.39 17.28 16.65 16.10 15.60 14.66 13.45 12.79 12.26 11.03 7.60 6.42 6.12 7.32 7.45 6.44 6.11 7.49 10.77 11.35 12.12 13.78 15.86 16.09 14.96 14.04 12.00 11.91 14.34 17.35 21.96 24.07 26.23 25.53 22.40 19.03
15.39 16.04 15.48 14.76 13.99 13.28 13.09 11.60 11.16 9.25 8.89 7.52 8.97 8.98 1.42 3.03 7.46 7.21 8.05 9.74 10.45 10.17 10.66 11.07 13.00 14.04 13.00 12.91 12.04 12.19 13.27 14.43 17.69 18.84 20.37 25.97 27.44 29.04
MSLP
1017.86 1017.81 1017.96 1018.22 1018.09 1018.24 1018.45 1018.85 1019.27 1019.59 1019.23 1018.84 1018.97 1018.22 1018.34 1018.11 1018.34 1018.77 1019.29 1019.62 1020.03 1020.38 1020.70 1021.44 1022.05 1022.41 1022.74 1023.13 1023.45 1023.59 1023.68 1023.81 1023.91 1023.93 1023.99 1024.05 1024.04 1024.07
1016.72 1017.05 1017.06 1017.14 1017.34 1017.43 1017.55 1018.05 1018.30 1018.41 1018.23 1018.03 1017.87 1017.59 1017.24 1017.27 1017.36 1017.90 1018.38 1019.06 1019.47 1020.03 1020.31 1020.99 1021.69 1022.09 1022.30 1022.66 1023.12 1023.34 1023.44 1023.51 1023.58 1023.64 1023.66 1023.58 1023.53 1023.51
1015.47 1015.78 1016.02 1016.11 1016.37 1016.54 1016.63 1017.01 1017.51 1017.69 1017.28 1016.97 1017.09 1017.09 1016.99 1017.00 1016.96 1017.04 1017.41 1018.42 1018.85 1019.39 1019.98 1020.36 1020.82 1021.40 1021.57 1021.98 1022.32 1022.57 1022.83 1023.02 1023.02 1023.06 1023.13 1023.14 1023.11 1023.02
1014.20 1014.63 1014.83 1015.19 1015.29 1015.47 1015.68 1016.03 1016.30 1016.42 1016.48 1016.14 1016.36 1016.67 1016.60 1016.77 1016.92 1017.23 1017.33 1017.71 1018.02 1018.70 1019.14 1019.68 1020.15 1020.59 1021.03 1021.55 1021.96 1022.24 1022.45 1022.40 1022.47 1022.56 1022.62 1022.64 1022.65 1022.50
1012.94 1013.31 1013.53 1013.88 1014.19 1014.29 1014.57 1014.90 1015.12 1015.51 1015.70 1015.65 1015.32 1015.71 1015.99 1016.21 1016.66 1016.93 1016.99 1017.31 1017.36 1017.58 1018.49 1019.01 1019.62 1019.91 1020.38 1020.98 1021.38 1021.57 1021.69 1021.75 1022.01 1022.11 1022.15 1022.22 1022.16 1022.15
1011.64 1011.85 1012.05 1012.36 1012.64 1013.08 1013.67 1013.97 1014.32 1014.72 1014.95 1015.05 1015.00 1015.61 1015.25 1015.61 1015.95 1016.17 1016.80 1016.92 1017.43 1017.54 1018.27 1018.49 1019.00 1019.61 1019.87 1020.26 1020.55 1020.74 1021.07 1021.07 1021.20 1021.37 1021.46 1021.48 1021.50 1021.66
1010.06 1010.29 1010.51 1010.79 1011.12 1011.53 1012.27 1013.02 1013.55 1013.86 1014.00 1014.33 1014.57 1015.03 1014.92 1015.33 1015.29 1015.67 1015.98 1016.80 1017.49 1018.06 1018.79 1018.04 1018.73 1019.39 1019.62 1019.68 1019.93 1020.09 1020.21 1020.23 1020.42 1020.59 1020.67 1020.78 1020.91 1020.93
1009.01 1009.04 1009.26 1009.65 1009.97 1010.49 1011.10 1011.73 1012.18 1012.10 1012.54 1012.92 1013.23 1013.93 1014.06 1014.16 1014.91 1015.80 1016.48 1017.37 1018.16 1018.00 1018.74 1019.31 1018.42 1019.01 1019.09 1019.25 1019.25 1019.23 1019.30 1019.34 1019.60 1019.84 1019.94 1019.95 1019.98 1019.99
1008.24 1008.41 1008.62 1008.86 1009.35 1010.05 1010.87 1011.61 1012.34 1012.29 1011.37 1011.65 1012.81 1013.70 1014.43 1014.78 1015.78 1016.35 1017.26 1017.15 1017.77 1018.96 1019.62 1018.76 1019.29 1019.06 1018.83 1018.77 1018.82 1018.64 1018.79 1018.93 1018.97 1019.09 1019.09 1019.06 1019.09 1019.18
1007.39 1007.71 1008.10 1008.53 1009.10 1009.93 1011.24 1012.41 1013.22 1013.54 1013.06 1012.49 1013.30 1013.99 1014.42 1014.99 1015.63 1016.81 1017.62 1018.39 1019.07 1018.85 1019.11 1019.07 1018.58 1018.71 1018.49 1018.42 1018.46 1018.23 1018.20 1018.45 1018.44 1018.38 1018.31 1018.28 1018.21 1018.27
1008.03 1008.22 1008.36 1008.90 1009.29 1009.96 1011.22 1012.48 1013.56 1014.33 1014.61 1014.48 1014.72 1015.43 1016.05 1015.93 1016.92 1016.96 1018.05 1019.28 1019.41 1018.89 1018.37 1018.74 1018.71 1018.75 1018.30 1018.10 1018.23 1017.86 1018.09 1018.21 1017.89 1017.68 1017.65 1017.77 1017.60 1017.38
1009.03 1009.19 1009.33 1009.65 1010.22 1010.75 1011.41 1012.61 1013.90 1015.06 1015.57 1015.73 1016.09 1016.61 1017.09 1018.01 1017.36 1018.06 1018.31 1018.09 1018.95 1019.08 1018.64 1018.96 1019.04 1019.20 1018.43 1017.92 1018.03 1018.20 1018.04 1017.92 1017.72 1017.41 1017.15 1016.87 1016.70 1016.79
1009.38 1009.92 1010.33 1010.56 1011.00 1011.47 1012.08 1013.12 1014.07 1015.38 1015.63 1016.15 1016.81 1017.23 1017.49 1018.17 1017.87 1017.89 1018.25 1018.39 1018.47 1018.97 1018.86 1019.22 1019.56 1019.59 1019.48 1018.95 1018.77 1018.65 1018.42 1017.93 1017.59 1017.07 1016.57 1016.24 1015.88 1015.67
1009.59 1010.47 1011.23 1011.61 1012.18 1012.78 1013.42 1014.23 1014.82 1015.34 1015.76 1016.84 1016.51 1017.44 1017.71 1018.01 1017.97 1017.99 1018.46 1018.81 1018.85 1019.31 1019.40 1019.70 1019.94 1019.72 1019.77 1019.62 1019.00 1018.39 1018.25 1017.91 1017.42 1016.84 1016.36 1015.76 1015.26 1014.85
1010.77 1011.12 1011.62 1012.56 1013.77 1014.74 1014.90 1015.23 1015.67 1016.21 1016.46 1016.99 1017.34 1017.98 1018.13 1018.42 1018.58 1018.65 1018.69 1018.70 1019.00 1019.16 1019.12 1019.30 1019.30 1019.21 1019.28 1019.29 1018.87 1018.39 1017.83 1017.25 1016.86 1016.26 1015.97 1015.64 1015.04 1014.57
1012.07 1012.24 1013.34 1013.27 1014.07 1015.33 1016.33 1016.49 1016.60 1017.11 1017.50 1017.89 1018.36 1018.53 1018.69 1018.85 1018.88 1018.96 1019.12 1019.07 1019.05 1018.96 1018.88 1018.90 1018.85 1018.77 1018.58 1018.47 1018.29 1017.71 1017.59 1017.24 1016.56 1016.13 1015.48 1014.67 1014.17 1013.77
1013.32 1013.92 1014.77 1015.31 1014.47 1015.45 1016.57 1017.12 1017.44 1017.60 1018.16 1018.67 1019.05 1019.11 1019.14 1019.20 1019.35 1019.42 1019.44 1019.47 1019.43 1019.41 1019.30 1018.80 1018.56 1018.30 1017.99 1017.91 1017.49 1017.31 1016.91 1016.61 1016.18 1015.51 1015.14 1014.60 1013.94 1013.20
1014.23 1014.61 1015.18 1015.75 1016.57 1016.37 1016.79 1017.62 1018.24 1018.84 1019.06 1019.30 1019.48 1019.51 1019.70 1019.88 1020.03 1020.14 1020.02 1020.03 1019.97 1019.75 1019.39 1019.03 1018.66 1018.29 1017.75 1017.34 1017.27 1016.76 1016.45 1016.27 1016.08 1015.68 1015.11 1014.49 1013.33 1012.72
1015.07 1015.89 1016.71 1016.78 1017.72 1018.07 1018.60 1018.96 1019.17 1019.61 1019.96 1020.08 1020.16 1020.25 1020.53 1020.61 1020.67 1020.73 1020.72 1020.60 1020.53 1020.16 1019.93 1019.39 1018.96 1018.64 1018.29 1017.45 1017.13 1016.81 1016.52 1016.16 1015.68 1015.17 1014.74 1014.15 1013.09 1011.86
1017.13 1017.04 1017.90 1018.57 1018.50 1019.17 1019.84 1020.31 1020.66 1020.99 1020.80 1020.88 1021.05 1021.09 1021.22 1021.32 1021.42 1021.38 1021.28 1021.07 1020.91 1020.73 1020.44 1020.05 1019.19 1018.48 1018.65 1018.28 1017.25 1016.76 1016.53 1015.64 1015.27 1014.59 1014.11 1013.32 1012.71 1011.68
1018.59 1018.83 1019.26 1019.60 1019.78 1020.24 1020.87 1021.22 1021.24 1021.19 1021.36 1021.62 1021.92 1022.11 1022.17 1022.12 1022.09 1022.01 1021.78 1021.43 1021.21 1020.91 1020.48 1020.42 1019.48 1019.20 1018.45 1017.81 1017.21 1016.41 1015.83 1015.23 1014.64 1013.79 1013.33 1012.82 1012.14 1011.40
1020.00 1020.30 1020.55 1020.61 1020.60 1020.87 1021.43 1021.74 1022.15 1022.26 1022.16 1022.55 1022.62 1022.45 1022.60 1022.70 1022.60 1022.40 1022.07 1021.99 1021.47 1021.15 1020.94 1020.29 1019.50 1019.01 1018.56 1018.04 1017.22 1016.41 1015.57 1014.86 1014.01 1013.19 1012.43 1012.05 1011.64 1010.75
1021.17 1021.44 1021.75 1021.95 1021.96 1021.93 1022.03 1022.43 1023.01 1022.94 1023.01 1023.28 1023.30 1023.10 1023.35 1023.32 1022.82 1022.40 1022.18 1021.93 1021.75 1021.45 1021.14 1020.35 1019.56 1019.15 1018.69 1018.07 1017.24 1016.38 1015.57 1014.40 1013.30 1012.15 1011.39 1010.81 1010.24 1009.36
Wind_Speed
10 10 10 8 6 5 5 6 7 7 9 7 6 11 10 10 10 10 13 13 14 14 13 13 13 12 11 10 10 12 12 12 13 14 15 16 17 19
9 11 11 9 8 7 7 5 6 9 11 6 6 5 7 8 9 8 8 12 15 15 14 13 12 12 11 10 9 10 11 12 13 14 15 16 17 19
13 13 12 11 9 8 7 8 9 9 12 9 5 5 5 7 6 7 8 7 7 14 14 14 15 13 12 11 11 10 11 12 12 13 14 14 15 16
17 14 15 11 12 11 8 10 10 11 11 16 8 6 7 7 4 8 8 8 8 14 17 18 14 13 11 11 10 10 10 11 11 12 13 13 14 14
16 16 16 14 14 11 12 10 11 10 10 11 11 3 4 5 5 6 6 5 6 9 15 15 14 13 13 11 11 10 11 11 12 13 12 11 11 14
18 16 16 16 16 14 13 14 12 10 10 11 11 4 4 2 6 9 7 5 4 4 8 9 11 12 12 11 12 13 14 14 15 13 11 10 10 14
19 17 17 18 18 16 11 12 11 11 12 11 11 4 5 4 12 6 5 3 2 0 2 4 4 4 5 10 10 15 17 16 14 13 12 13 13 13
18 17 16 12 14 17 18 17 16 16 16 13 13 10 10 1 4 4 3 3 2 3 2 7 2 4 3 3 6 10 10 13 13 13 15 15 13 12
14 13 13 8 11 10 9 5 9 8 1 9 8 3 4 4 4 4 4 3 5 1 4 2 3 3 3 4 8 8 7 10 12 14 14 14 13 13
15 13 7 7 7 8 9 9 8 8 7 7 9 8 9 8 8 5 4 4 2 2 2 4 2 4 4 4 8 11 7 7 11 13 14 14 14 13
6 6 4 5 10 19 13 12 11 11 15 22 21 20 18 17 9 6 4 2 0 3 3 2 2 4 3 3 4 7 9 8 10 10 12 14 17 13
7 8 12 11 15 12 13 12 12 7 8 9 10 11 12 8 7 3 3 4 2 1 2 2 4 3 4 2 2 4 4 6 10 14 17 17 18 6
7 7 7 18 18 20 18 11 12 10 11 9 7 6 4 2 3 3 2 2 2 1 3 3 2 3 2 5 3 5 7 9 8 10 12 15 20 13
10 9 11 23 24 24 17 23 19 11 7 5 6 4 4 2 4 5 5 4 4 3 5 4 2 1 3 7 8 4 6 7 6 7 8 12 16 15
8 20 28 28 25 18 20 16 10 6 5 5 5 4 4 4 4 3 3 2 3 4 4 5 3 4 4 8 10 9 10 9 8 9 5 5 6 4
13 13 14 16 15 11 9 9 8 6 6 6 5 4 4 3 2 2 1 1 1 2 5 6 6 4 6 7 8 9 8 8 9 9 9 9 9 6
9 8 7 6 9 8 6 7 5 6 7 5 4 4 4 4 3 3 3 3 2 4 5 5 6 6 5 7 8 8 9 10 9 9 4 7 8 6
6 7 7 7 6 7 7 7 7 8 5 4 4 5 5 5 5 5 5 4 5 5 6 6 5 6 7 7 11 9 8 6 7 8 8 8 10 9
9 9 8 9 8 7 7 6 7 6 6 6 6 5 5 4 4 4 5 5 6 6 7 6 7 6 8 9 7 13 10 8 9 9 7 7 9 11
9 9 9 8 8 8 7 7 6 5 5 4 3 3 4 4 4 4 5 4 6 7 8 8 7 7 6 9 11 8 15 11 9 10 9 8 10 17
8 9 8 7 7 7 5 4 3 4 4 3 4 4 3 3 3 3 4 6 6 6 8 8 8 15 9 9 9 9 7 17 18 12 9 9 10 10
7 7 7 6 6 6 6 6 5 5 5 4 3 3 3 2 2 2 2 4 5 6 7 8 9 9 9 9 11 12 10 9 16 22 22 19 9 6
8 7 6 6 6 6 6 5 5 4 3 3 4 4 3 3 3 3 3 4 6 6 8 8 7 8 9 9 12 11 16 13 10 11 11 16 20 26
Wind_Direction
220 221 220 225 216 218 221 220 217 243 248 249 227 209 216 213 211 210 220 196 190 191 188 196 201 203 205 214 226 237 245 253 260 266 272 277 282 286
221 224 227 224 225 220 221 221 214 223 255 244 251 228 206 221 204 174 183 177 189 189 187 188 196 204 203 209 222 238 247 254 262 269 273 279 285 288
223 221 226 218 222 225 221 213 223 224 246 246 210 225 217 213 167 183 165 180 186 188 189 188 195 196 195 208 219 230 242 254 265 272 278 282 284 289
235 227 230 228 231 223 217 211 222 223 230 251 230 228 209 215 186 189 191 197 181 194 205 205 192 187 198 212 225 236 243 252 257 262 273 277 285 294
231 230 235 230 232 222 220 223 225 229 236 244 245 196 186 188 167 191 187 220 226 194 206 179 178 189 204 217 231 234 237 242 241 247 252 261 275 293
234 233 232 231 233 221 223 225 229 232 236 240 246 213 197 187 202 188 203 191 202 166 192 182 189 203 207 216 226 232 240 239 240 239 236 250 263 272
232 233 235 234 229 211 209 220 226 235 240 241 238 185 190 180 203 197 199 130 66 260 264 161 159 193 211 221 229 236 242 239 239 240 244 242 252 260
239 238 236 221 210 206 212 225 232 231 234 228 229 224 238 184 120 128 83 61 121 18 48 315 214 203 215 213 232 241 229 227 229 227 234 242 254 260
240 243 245 232 207 217 229 125 68 59 235 203 207 156 129 125 77 80 44 105 144 218 348 216 283 294 277 272 273 264 235 223 228 232 241 250 253 258
241 244 227 208 185 152 117 92 74 43 31 72 97 107 108 91 96 108 109 109 22 321 185 227 225 249 254 249 281 301 290 279 269 258 250 252 249 252
46 34 75 101 130 133 121 113 93 72 66 78 82 78 71 86 89 98 108 84 257 215 201 232 244 270 252 260 255 313 338 325 309 306 285 275 262 253
70 63 72 100 101 114 119 120 106 99 86 83 74 71 67 61 69 93 161 143 125 329 25 20 6 5 322 248 0 334 306 294 319 308 298 288 268 240
99 89 89 97 99 100 101 104 110 114 101 103 89 97 92 107 129 98 58 79 73 294 37 79 354 344 301 313 322 325 325 305 292 281 282 297 290 230
112 98 92 95 95 93 93 108 108 107 107 89 103 116 153 128 53 58 53 35 23 333 343 5 256 333 295 290 289 294 291 284 274 293 292 281 292 234
101 102 99 93 87 81 90 89 81 81 89 99 93 79 63 60 48 36 7 347 320 295 284 264 220 240 239 263 278 286 299 290 272 270 280 290 282 248
89 81 85 96 89 88 74 59 60 56 63 65 67 65 61 57 43 35 350 308 302 312 302 291 270 255 265 263 271 281 283 284 299 283 277 277 275 253
90 85 83 72 94 97 88 83 81 74 70 65 61 49 43 33 20 16 3 359 357 318 300 297 293 274 259 269 274 273 281 279 276 283 313 318 307 268
88 87 88 79 65 82 92 90 74 65 53 56 53 46 37 24 17 354 344 334 314 306 304 308 307 311 306 291 290 292 293 320 330 320 315 297 296 294
71 69 61 66 67 65 64 60 68 52 51 49 44 38 25 12 355 341 328 327 324 324 321 324 323 317 303 292 310 335 320 310 301 297 290 288 288 284
57 65 65 57 62 62 54 53 47 48 46 29 21 26 23 14 2 345 341 342 338 329 317 307 297 309 331 307 300 295 283 289 287 287 286 283 281 286
61 61 60 59 62 63 56 50 40 42 37 30 34 25 12 6 347 347 342 338 324 315 316 314 321 322 315 314 311 307 299 296 301 297 290 294 297 299
63 64 59 56 55 51 48 34 27 26 31 23 10 26 15 352 343 333 323 319 320 320 315 316 318 312 310 305 307 308 305 303 299 293 282 273 269 255
44 45 51 47 47 47 43 37 27 21 21 8 13 17 359 341 320 324 325 329 328 327 311 310 321 323 316 311 308 306 304 303 302 301 289 277 265 264